Flag for Germany Weather past 2 weeks in Kulmbach, Bavaria, Germany

Now
39 °F

Partly sunny.


Feels Like: 31 °F
Forecast: 37 / 49 °F
Wind: 14 mph from West

Location: Hof Airport

Current Time: Mar 27, 2015 at 6:35:59 PM

Latest Report: Mar 27, 2015 at 5:50 PM


Visibility: N/A

Pressure: 30.04 "Hg

Humidity: 70%

Dew point: 30 °F

Location of KulmbachLocation

Historic Weather in Kulmbach — Graph

°F

Kulmbach temperature yesterday

Maximum temperature yesterday: 43 °F (at 12:50 PM)
Minimum temperature yesterday: 39 °F (at 9:20 AM)
Average temperature yesterday: 41 °F

Past Weeks' High & Low Weather Summary

 TemperatureHumidityPressure
High61 °F (Mar 25, 1:50 PM)100% (Mar 13, 7:50 AM)30.36 "Hg (Mar 13, 7:50 AM)
Low27 °F (Mar 23, 5:50 AM)19% (Mar 20, 3:50 PM)29.62 "Hg (Mar 25, 3:20 PM)
Average42 °F68%30.09 "Hg
* Reported Mar 12 5:20 PM — Mar 27 5:20 PM, Kulmbach, Weather by CustomWeather, © 2015

Note: Actual official high and low records may vary slightly from our data, if they occured in-between our weather recording intervals... More about our weather records

Advertising

Kulmbach weather history for previous 24 hours

 ConditionsComfort  
Time TempWeatherWind HumidityBarometerVisibility
5:20 PM
Fri, Mar 27
41 °FPartly sunny.17 mph66%30.04 "HgN/A
4:50 PM41 °FBroken clouds.14 mph70%30.04 "HgN/A
4:20 PM41 °FBroken clouds.15 mph66%30.01 "HgN/A
3:50 PM41 °FPartly sunny.16 mph66%30.01 "HgN/A
3:20 PM43 °FBroken clouds.16 mph66%29.98 "HgN/A
2:50 PM43 °FScattered clouds.22 mph66%29.98 "HgN/A
2:20 PM46 °FPartly sunny.17 mph57%29.95 "HgN/A
1:50 PM45 °FPartly sunny.13 mph57%29.95 "HgN/A
1:20 PM45 °FScattered clouds.14 mph61%29.95 "HgN/A
12:50 PM43 °FScattered clouds.16 mph66%29.95 "HgN/A
12:20 PM43 °FScattered clouds.18 mph66%29.95 "HgN/A
11:50 AM41 °FBroken clouds.12 mph66%29.95 "HgN/A
10:50 AM41 °FBroken clouds.9 mph76%29.95 "HgN/A
10:20 AM39 °FBroken clouds.14 mph81%29.95 "HgN/A
9:50 AM41 °FScattered clouds.13 mph76%29.92 "HgN/A
9:20 AM39 °FBroken clouds.10 mph81%29.92 "HgN/A
8:50 AM39 °FPartly sunny.13 mph81%29.92 "HgN/A
8:20 AM39 °FPartly sunny.14 mph81%29.89 "Hg6 mi
7:50 AM37 °FBroken clouds.10 mph87%29.89 "Hg4 mi
6:50 PM
Thu, Mar 26
41 °FFog.8 mph81%29.77 "Hg2 mi
6:20 PM41 °FFog.7 mph81%29.77 "Hg2 mi
Weather by CustomWeather, © 2015

See weather overviewHow to use our weather pages